Location: Buchloe
(48.0161°N, 10.7316°E)
Time: 07:24:45
(UTC+02:00)

ISS - Pass Details

Date: 08 July 2025
Orbit: 413 x 417 km, 51.6° (Epoch: 16 July)

Event Time Altitude Azimuth Distance (km) Brightness Sun altitude
Rises 02:49:25 0° 289° (WNW) 2,356 0.0 -16.9°
Reaches altitude 10° 02:51:32 10° 294° (WNW) 1,493 -0.9 -16.7°
Maximum altitude 02:54:50 55° 14° (NNE) 508 -3.0 -16.5°
Drops below altitude 10° 02:58:08 10° 93° (E) 1,492 -0.7 -16.3°
Sets 03:00:15 0° 98° (E) 2,354 0.3 -16.2°
